DECAYED

ARIANE 40 DEB, 35955 (Decayed)

Orbit data source: Space-Track

ARIANE 40 DEB, 35955 was space debris in LEO originally from a launch on Sun, 26 Sep 1993 UTC launched from the French Guiana (FRGUI). Debris objects in space refer to the collection of defunct objects orbiting the Earth. Examples of debris include non-operational satellites, rocket bodies, and fragments generated from explosions, collisions, or faulty payload assembly.

Not visible in the next 10 days
Identifier
35955, 1993-061K
Orbit
Decayed
Last TLE update
11 months ago
Origin
Manufacturer
Unknown
Mission
Decayed spacecraft
Bus & Motor
Unknown
Mass
Unknown
Launch date (UTC)
1993-09-26 (32 years ago)
Launch vehicle
Unknown
Launch site
French Guiana (FRGUI)
Object type
Payload
Rocket body
Debris
Shape & HBR
Unknown
Radar Cross Section
Small (<0.1 m²)

Expand to show TLE details & history

TLE from 11 months ago
0 ARIANE 40 DEB
1 35955U 93061K   24205.15759195  .25593434  32983-5  68685-2 0  9991
2 35955  98.6080  30.1642 0021296 286.1507  73.7438 16.27590434781240
Epoch: 2024-07-23T03:46Z
TLE epoch observation values (Epoch: 2024-07-23T03:46:55.944Z)
Latitude
-0.00002°
Longitude
32.05108°
Altitude
198.325 km
Speed
7.79 km/s
True Right ascension
02h 00m 39s
True Declination
0° 00' 00"
Sunlit
Object was in daylight at epoch
Visualization orbit readout
Visualization observer readout
Orbital elements
Apogee altitude
209.905 km
Perigee altitude
181.905 km
Semi-major axis
6,574.042 km
Eccentricity
0.00213
Inclination
98.608°
RAAN
30.1642°
Arg. of periapsis
286.1507°
True anomaly
Unknown
Mean anomaly
73.7438°
Eccentric anomaly
Unknown
Mean motion
4.07187 °/min
Orbital period
88.41 mins
BSTAR
0.0068685
Loading maneuver chart data...
Loading SW <> Apogee altitude chart data...
Loading historical data...
Loading historical data...
Loading historical data...
Loading historical data...
Loading historical data...
Loading historical data...
Loading historical data...

ARIANE 40 DEB Visibility

Observer location: undefined°, undefined°

This satellite is decayed
Span
Click to sort rows by Start time (UTC) header in descending order
Start Az.
Max El. time (UTC)
Max El. Az.
Max El.
End time (UTC)
End Az.
|